Find Starlink 37134

NORAD ID: 68281 Int'l Des: 2026-055 Owner: SPXS Country: US Constellation: starlink operational
LEOCIRCULAR

現在のビュー

3D地球を読み込み中...

About Starlink 37134

Starlink 37134 (NORAD 68281) is a starlink constellation satellite (v2 mini) launched Mar 19, 2026 by SPXS of US. It operates in LEO, CIRCULAR orbit with a mass of 575.00 kg.

Starlink 37134について

説明を読み込み中...

次回通過

Passes for default location (London). Set your location on the main map for personalized predictions.

高度履歴

Loading altitude history...

軌道要素

1 68281U 26055V 26169.81471243 .00010928 00000-0 33420-3 0 9992
2 68281 53.1569 209.5563 0001983 87.5609 272.5621 15.34390352 15413
Epoch: Jun 18, 2026 • Age: 6 hours

現在のステータス

高度 462.9 km
速度 7.64 km/s
衛星直下点 5.64°N, 82.3°W
打ち上げ日 Mar 19, 2026
運用期間 0.2 years
タイプ internet

技術仕様

分類 Payload
質量 575.00 kg
乾燥質量 530.00 kg
総質量 575.00 kg
長さ 0.30 m
直径 4.10 m
スパン 29.00 m
形状 Box + pan
製造者 SPXS
バスタイプ Starlink V2MO
フェーズステータス In Orbit
所有者/国 SPXS/US

Most Searched